QPF
0.18 0.15 0.12 0.10 0.07 0.06 0.03 0.01 0.01 0.01 0.01 0.02 0.03 0.05 0.05 0.07 0.07 0.06 0.03 0.03 0.03 0.03 0.02 0.01 0.00 0.01 0.01 0.01 0.01 0.01 0.01 0.01 0.01 0.01 0.01 0.02 0.02 0.01 0.01 0.01 0.01 0.01 0.01
0.24 0.19 0.15 0.14 0.12 0.11 0.11 0.05 0.02 0.02 0.01 0.02 0.02 0.03 0.04 0.07 0.06 0.05 0.02 0.02 0.02 0.01 0.01 0.01 0.00 0.01 0.01 0.00 0.01 0.01 0.01 0.01 0.00 0.01 0.01 0.01 0.01 0.01 0.00 0.00 0.01 0.01 0.01
0.21 0.24 0.21 0.19 0.17 0.18 0.16 0.13 0.07 0.04 0.03 0.02 0.01 0.01 0.02 0.04 0.03 0.04 0.02 0.00 0.00 0.01 0.00 0.00 0.00 0.00 0.00 0.00 0.01 0.01 0.01 0.01 0.01 0.01 0.00 0.01 0.00 0.00 0.00 0.00 0.00 0.00 0.00
0.16 0.18 0.20 0.21 0.19 0.20 0.21 0.19 0.11 0.07 0.04 0.02 0.01 0.00 0.01 0.01 0.01 0.02 0.02 0.01 0.00 0.00 0.00 0.00 0.00 0.00 0.00 0.00 0.01 0.01 0.00 0.00 0.01 0.01 0.01 0.00 0.00 0.00 0.00 0.00 0.00 0.00 0.00
0.15 0.18 0.22 0.23 0.25 0.24 0.23 0.17 0.13 0.09 0.04 0.02 0.02 0.01 0.00 0.01 0.01 0.02 0.01 0.01 0.00 0.00 0.00 0.00 0.00 0.00 0.00 0.00 0.00 0.00 0.00 0.00 0.00 0.00 0.00 0.00 0.00 0.00 0.00 0.00 0.00 0.00 0.00
0.13 0.15 0.18 0.22 0.27 0.25 0.21 0.18 0.14 0.11 0.07 0.05 0.04 0.03 0.01 0.01 0.02 0.02 0.01 0.01 0.01 0.01 0.00 0.00 0.00 0.00 0.00 0.01 0.01 0.01 0.00 0.00 0.00 0.00 0.01 0.00 0.00 0.00 0.00 0.00 0.00 0.00 0.00
0.10 0.12 0.13 0.18 0.24 0.23 0.21 0.21 0.21 0.19 0.12 0.08 0.07 0.06 0.04 0.03 0.03 0.03 0.02 0.02 0.01 0.01 0.01 0.00 0.00 0.00 0.00 0.01 0.01 0.01 0.01 0.00 0.00 0.01 0.01 0.01 0.01 0.00 0.00 0.00 0.00 0.00 0.00
0.08 0.10 0.12 0.15 0.19 0.19 0.20 0.21 0.24 0.22 0.16 0.11 0.10 0.09 0.06 0.05 0.04 0.03 0.02 0.01 0.01 0.02 0.02 0.02 0.01 0.01 0.01 0.00 0.00 0.01 0.01 0.01 0.01 0.01 0.01 0.01 0.01 0.00 0.00 0.00 0.00 0.00 0.00
0.06 0.08 0.10 0.13 0.17 0.19 0.18 0.17 0.19 0.20 0.19 0.14 0.11 0.09 0.06 0.04 0.04 0.04 0.04 0.03 0.03 0.02 0.02 0.03 0.03 0.03 0.03 0.02 0.01 0.00 0.01 0.00 0.01 0.01 0.01 0.01 0.00 0.00 0.00 0.00 0.00 0.00 0.00
0.05 0.07 0.10 0.12 0.14 0.16 0.16 0.16 0.16 0.17 0.18 0.17 0.14 0.09 0.05 0.03 0.02 0.02 0.05 0.07 0.06 0.04 0.04 0.04 0.03 0.04 0.05 0.05 0.05 0.02 0.02 0.01 0.01 0.01 0.01 0.01 0.01 0.01 0.01 0.00 0.00 0.00 0.00
0.05 0.06 0.08 0.10 0.13 0.15 0.15 0.16 0.17 0.17 0.15 0.15 0.15 0.13 0.10 0.08 0.04 0.02 0.03 0.07 0.10 0.10 0.09 0.07 0.06 0.06 0.06 0.05 0.06 0.06 0.03 0.02 0.01 0.03 0.04 0.03 0.02 0.02 0.01 0.00 0.00 0.00 0.01
0.04 0.06 0.06 0.08 0.12 0.13 0.14 0.15 0.14 0.14 0.15 0.15 0.16 0.16 0.13 0.11 0.08 0.06 0.03 0.04 0.08 0.13 0.18 0.18 0.13 0.11 0.11 0.11 0.12 0.12 0.06 0.04 0.02 0.03 0.04 0.04 0.04 0.04 0.03 0.01 0.01 0.01 0.01
0.06 0.06 0.07 0.07 0.11 0.14 0.14 0.16 0.18 0.15 0.15 0.15 0.14 0.14 0.13 0.11 0.09 0.09 0.08 0.06 0.06 0.09 0.13 0.16 0.18 0.18 0.18 0.13 0.13 0.16 0.10 0.06 0.03 0.03 0.03 0.03 0.03 0.03 0.04 0.03 0.03 0.02 0.02
0.10 0.09 0.11 0.11 0.09 0.13 0.18 0.19 0.21 0.20 0.20 0.17 0.16 0.17 0.16 0.12 0.10 0.08 0.08 0.09 0.07 0.06 0.07 0.09 0.11 0.12 0.14 0.13 0.13 0.13 0.10 0.08 0.05 0.03 0.03 0.03 0.03 0.02 0.03 0.04 0.03 0.03 0.03
0.14 0.14 0.12 0.12 0.11 0.13 0.17 0.21 0.20 0.22 0.23 0.22 0.21 0.21 0.20 0.16 0.12 0.11 0.11 0.11 0.09 0.05 0.04 0.04 0.05 0.07 0.09 0.10 0.11 0.10 0.09 0.09 0.07 0.04 0.03 0.03 0.04 0.03 0.02 0.02 0.02 0.02 0.02
0.21 0.17 0.17 0.14 0.12 0.12 0.13 0.16 0.19 0.19 0.24 0.30 0.31 0.30 0.27 0.24 0.18 0.14 0.13 0.13 0.11 0.09 0.06 0.05 0.04 0.05 0.06 0.06 0.08 0.08 0.07 0.06 0.05 0.05 0.04 0.05 0.06 0.03 0.02 0.01 0.01 0.01 0.00
0.21 0.19 0.16 0.14 0.14 0.14 0.13 0.14 0.16 0.17 0.19 0.24 0.30 0.30 0.26 0.25 0.24 0.21 0.18 0.16 0.14 0.11 0.09 0.07 0.05 0.05 0.05 0.04 0.04 0.05 0.05 0.06 0.06 0.07 0.08 0.07 0.06 0.05 0.04 0.02 0.01 0.01 0.00
0.11 0.14 0.17 0.13 0.13 0.14 0.13 0.14 0.15 0.14 0.15 0.18 0.21 0.24 0.26 0.27 0.28 0.28 0.24 0.20 0.16 0.13 0.10 0.09 0.06 0.05 0.05 0.04 0.04 0.04 0.04 0.05 0.06 0.06 0.07 0.07 0.07 0.05 0.04 0.03 0.02 0.01 0.00
0.05 0.06 0.08 0.08 0.10 0.11 0.12 0.14 0.14 0.13 0.14 0.17 0.21 0.22 0.23 0.24 0.22 0.20 0.20 0.20 0.18 0.14 0.09 0.06 0.05 0.05 0.05 0.05 0.05 0.05 0.05 0.06 0.07 0.07 0.08 0.09 0.08 0.07 0.06 0.04 0.03 0.02 0.01
0.03 0.04 0.04 0.05 0.05 0.05 0.07 0.09 0.09 0.09 0.11 0.13 0.14 0.16 0.17 0.17 0.17 0.18 0.16 0.14 0.13 0.11 0.07 0.05 0.04 0.04 0.04 0.04 0.04 0.05 0.06 0.06 0.08 0.08 0.08 0.08 0.08 0.07 0.05 0.03 0.02 0.02 0.01
0.01 0.02 0.03 0.03 0.03 0.04 0.04 0.06 0.07 0.08 0.09 0.11 0.13 0.12 0.14 0.15 0.16 0.16 0.15 0.12 0.09 0.07 0.05 0.04 0.03 0.03 0.02 0.03 0.03 0.05 0.07 0.10 0.09 0.08 0.07 0.05 0.04 0.04 0.03 0.02 0.02 0.02 0.01
0.00 0.00 0.00 0.01 0.01 0.02 0.03 0.04 0.05 0.06 0.07 0.10 0.12 0.11 0.12 0.12 0.11 0.12 0.12 0.09 0.07 0.05 0.04 0.03 0.03 0.02 0.01 0.03 0.04 0.05 0.06 0.07 0.08 0.07 0.06 0.05 0.03 0.03 0.02 0.01 0.02 0.02 0.02
0.00 0.00 0.00 0.00 0.00 0.00 0.01 0.02 0.03 0.05 0.07 0.10 0.11 0.11 0.11 0.11 0.11 0.09 0.08 0.06 0.05 0.05 0.05 0.04 0.03 0.02 0.02 0.02 0.03 0.04 0.05 0.05 0.04 0.04 0.04 0.04 0.02 0.02 0.01 0.01 0.01 0.01 0.01
0.00 0.00 0.00 0.00 0.00 0.01 0.01 0.01 0.02 0.04 0.07 0.09 0.09 0.09 0.08 0.08 0.10 0.08 0.05 0.05 0.05 0.06 0.06 0.04 0.05 0.04 0.03 0.03 0.03 0.04 0.05 0.06 0.04 0.04 0.04 0.03 0.02 0.01 0.01 0.00 0.01 0.00 0.00
0.00 0.00 0.00 0.00 0.01 0.01 0.02 0.02 0.03 0.05 0.08 0.10 0.07 0.07 0.07 0.06 0.07 0.06 0.05 0.07 0.06 0.07 0.07 0.07 0.06 0.05 0.05 0.04 0.04 0.04 0.03 0.03 0.04 0.04 0.03 0.02 0.01 0.01 0.01 0.00 0.00 0.01 0.01
0.00 0.00 0.01 0.01 0.01 0.01 0.02 0.03 0.05 0.07 0.10 0.12 0.09 0.07 0.11 0.10 0.07 0.06 0.05 0.06 0.06 0.05 0.04 0.04 0.05 0.05 0.05 0.04 0.05 0.04 0.02 0.02 0.02 0.03 0.01 0.01 0.00 0.00 0.00 0.00 0.00 0.00 0.00
MSLP
1014.71 1014.80 1014.91 1015.06 1015.25 1015.48 1015.75 1016.03 1016.29 1016.49 1016.63 1016.71 1016.72 1016.70 1016.68 1016.68 1016.73 1016.82 1016.95 1017.11 1017.28 1017.45 1017.61 1017.77 1017.91 1018.06 1018.20 1018.33 1018.46 1018.57 1018.66 1018.73 1018.80 1018.87 1018.98 1019.12 1019.29 1019.48 1019.67 1019.82 1019.90 1019.92 1019.88
1014.31 1014.37 1014.46 1014.62 1014.83 1015.10 1015.40 1015.71 1016.01 1016.25 1016.43 1016.53 1016.58 1016.60 1016.60 1016.62 1016.67 1016.76 1016.89 1017.04 1017.20 1017.38 1017.56 1017.74 1017.93 1018.11 1018.29 1018.45 1018.59 1018.70 1018.78 1018.85 1018.92 1019.00 1019.11 1019.27 1019.45 1019.64 1019.82 1019.96 1020.03 1020.03 1019.97
1013.93 1013.95 1014.04 1014.20 1014.43 1014.72 1015.05 1015.39 1015.70 1015.96 1016.17 1016.31 1016.39 1016.44 1016.48 1016.52 1016.58 1016.66 1016.77 1016.91 1017.06 1017.23 1017.42 1017.62 1017.83 1018.05 1018.26 1018.45 1018.61 1018.74 1018.83 1018.91 1018.98 1019.07 1019.19 1019.34 1019.53 1019.73 1019.91 1020.04 1020.10 1020.10 1020.03
1013.59 1013.59 1013.68 1013.85 1014.09 1014.39 1014.72 1015.06 1015.38 1015.65 1015.87 1016.03 1016.15 1016.24 1016.30 1016.37 1016.44 1016.52 1016.61 1016.73 1016.86 1017.02 1017.20 1017.40 1017.63 1017.88 1018.12 1018.34 1018.53 1018.68 1018.79 1018.88 1018.97 1019.07 1019.20 1019.36 1019.55 1019.75 1019.93 1020.06 1020.13 1020.12 1020.06
1013.29 1013.29 1013.39 1013.56 1013.81 1014.11 1014.43 1014.75 1015.06 1015.32 1015.54 1015.72 1015.87 1015.99 1016.09 1016.19 1016.27 1016.36 1016.44 1016.54 1016.64 1016.77 1016.94 1017.14 1017.38 1017.63 1017.90 1018.15 1018.37 1018.55 1018.69 1018.80 1018.91 1019.02 1019.16 1019.33 1019.52 1019.72 1019.90 1020.03 1020.11 1020.11 1020.06
1013.02 1013.04 1013.14 1013.33 1013.57 1013.86 1014.16 1014.46 1014.73 1014.98 1015.20 1015.39 1015.57 1015.72 1015.87 1016.00 1016.12 1016.21 1016.30 1016.37 1016.45 1016.56 1016.70 1016.88 1017.11 1017.37 1017.65 1017.92 1018.17 1018.38 1018.56 1018.70 1018.83 1018.96 1019.11 1019.28 1019.47 1019.67 1019.85 1019.98 1020.06 1020.09 1020.06
1012.77 1012.80 1012.91 1013.10 1013.33 1013.60 1013.87 1014.14 1014.39 1014.62 1014.83 1015.04 1015.25 1015.45 1015.65 1015.83 1015.99 1016.11 1016.20 1016.27 1016.33 1016.41 1016.52 1016.68 1016.89 1017.14 1017.42 1017.70 1017.97 1018.21 1018.41 1018.59 1018.74 1018.90 1019.06 1019.24 1019.43 1019.62 1019.79 1019.93 1020.02 1020.06 1020.07
1012.50 1012.52 1012.64 1012.82 1013.04 1013.29 1013.53 1013.77 1013.99 1014.21 1014.43 1014.66 1014.92 1015.18 1015.44 1015.68 1015.89 1016.05 1016.16 1016.23 1016.29 1016.34 1016.42 1016.55 1016.73 1016.96 1017.22 1017.51 1017.78 1018.05 1018.28 1018.48 1018.67 1018.85 1019.02 1019.21 1019.39 1019.58 1019.75 1019.89 1019.99 1020.06 1020.09
1012.18 1012.19 1012.30 1012.46 1012.66 1012.88 1013.10 1013.31 1013.52 1013.73 1013.98 1014.25 1014.55 1014.88 1015.22 1015.53 1015.80 1016.02 1016.16 1016.25 1016.30 1016.34 1016.39 1016.48 1016.62 1016.82 1017.06 1017.33 1017.61 1017.88 1018.14 1018.37 1018.59 1018.79 1018.99 1019.18 1019.37 1019.55 1019.72 1019.86 1019.98 1020.06 1020.12
1011.82 1011.80 1011.87 1012.01 1012.18 1012.36 1012.55 1012.74 1012.95 1013.18 1013.44 1013.76 1014.13 1014.53 1014.94 1015.33 1015.67 1015.95 1016.14 1016.26 1016.32 1016.35 1016.38 1016.44 1016.54 1016.70 1016.91 1017.15 1017.42 1017.69 1017.97 1018.23 1018.47 1018.71 1018.93 1019.14 1019.34 1019.53 1019.69 1019.84 1019.96 1020.06 1020.15
1011.45 1011.38 1011.41 1011.49 1011.61 1011.76 1011.92 1012.09 1012.29 1012.53 1012.83 1013.20 1013.62 1014.09 1014.57 1015.03 1015.45 1015.78 1016.03 1016.19 1016.27 1016.32 1016.34 1016.38 1016.45 1016.57 1016.73 1016.95 1017.19 1017.46 1017.74 1018.02 1018.30 1018.56 1018.81 1019.05 1019.27 1019.47 1019.64 1019.79 1019.92 1020.04 1020.14
1011.12 1011.00 1010.95 1010.97 1011.04 1011.13 1011.25 1011.40 1011.59 1011.83 1012.15 1012.54 1013.01 1013.53 1014.07 1014.59 1015.07 1015.47 1015.78 1015.99 1016.12 1016.19 1016.23 1016.26 1016.31 1016.40 1016.53 1016.71 1016.93 1017.18 1017.46 1017.75 1018.05 1018.35 1018.63 1018.90 1019.14 1019.36 1019.54 1019.71 1019.85 1019.97 1020.10
1010.92 1010.72 1010.60 1010.55 1010.54 1010.57 1010.63 1010.73 1010.89 1011.12 1011.43 1011.83 1012.31 1012.85 1013.43 1014.00 1014.53 1014.99 1015.37 1015.65 1015.84 1015.96 1016.03 1016.09 1016.14 1016.21 1016.31 1016.46 1016.65 1016.88 1017.15 1017.44 1017.76 1018.08 1018.40 1018.70 1018.97 1019.21 1019.42 1019.59 1019.74 1019.87 1020.00
1010.89 1010.62 1010.42 1010.29 1010.19 1010.14 1010.13 1010.17 1010.27 1010.45 1010.73 1011.10 1011.56 1012.10 1012.68 1013.27 1013.84 1014.35 1014.80 1015.15 1015.43 1015.63 1015.77 1015.87 1015.95 1016.02 1016.12 1016.24 1016.40 1016.61 1016.86 1017.15 1017.47 1017.82 1018.16 1018.49 1018.79 1019.05 1019.28 1019.46 1019.62 1019.76 1019.89
1011.06 1010.74 1010.47 1010.24 1010.06 1009.91 1009.81 1009.76 1009.79 1009.90 1010.10 1010.41 1010.82 1011.32 1011.87 1012.46 1013.04 1013.61 1014.12 1014.56 1014.94 1015.23 1015.47 1015.64 1015.77 1015.88 1015.98 1016.10 1016.24 1016.42 1016.66 1016.94 1017.27 1017.62 1017.98 1018.34 1018.66 1018.95 1019.19 1019.38 1019.54 1019.68 1019.81
1011.42 1011.05 1010.72 1010.42 1010.15 1009.91 1009.71 1009.57 1009.50 1009.51 1009.62 1009.84 1010.16 1010.58 1011.08 1011.64 1012.23 1012.82 1013.39 1013.93 1014.41 1014.82 1015.16 1015.44 1015.65 1015.81 1015.95 1016.08 1016.22 1016.39 1016.61 1016.88 1017.20 1017.56 1017.93 1018.30 1018.64 1018.95 1019.20 1019.40 1019.56 1019.69 1019.81
1011.90 1011.50 1011.13 1010.77 1010.43 1010.11 1009.82 1009.58 1009.40 1009.31 1009.31 1009.42 1009.64 1009.97 1010.39 1010.90 1011.47 1012.07 1012.70 1013.31 1013.89 1014.42 1014.88 1015.27 1015.58 1015.82 1016.01 1016.18 1016.33 1016.51 1016.73 1017.00 1017.32 1017.68 1018.06 1018.44 1018.80 1019.11 1019.37 1019.57 1019.72 1019.84 1019.95
1012.40 1012.00 1011.60 1011.21 1010.81 1010.43 1010.07 1009.75 1009.49 1009.29 1009.19 1009.19 1009.30 1009.52 1009.86 1010.30 1010.83 1011.43 1012.08 1012.74 1013.41 1014.04 1014.61 1015.11 1015.53 1015.86 1016.13 1016.35 1016.55 1016.75 1016.99 1017.27 1017.61 1017.98 1018.37 1018.76 1019.12 1019.44 1019.70 1019.90 1020.05 1020.15 1020.24
1012.84 1012.45 1012.04 1011.63 1011.21 1010.80 1010.40 1010.02 1009.69 1009.42 1009.23 1009.14 1009.15 1009.28 1009.52 1009.88 1010.35 1010.92 1011.56 1012.26 1012.97 1013.68 1014.34 1014.93 1015.44 1015.87 1016.22 1016.52 1016.78 1017.04 1017.32 1017.64 1018.00 1018.40 1018.81 1019.22 1019.60 1019.93 1020.19 1020.39 1020.52 1020.62 1020.68
1013.15 1012.76 1012.37 1011.96 1011.55 1011.13 1010.71 1010.32 1009.96 1009.65 1009.41 1009.25 1009.18 1009.22 1009.38 1009.66 1010.06 1010.57 1011.18 1011.86 1012.58 1013.32 1014.03 1014.69 1015.28 1015.79 1016.23 1016.60 1016.95 1017.28 1017.63 1018.00 1018.42 1018.86 1019.31 1019.75 1020.15 1020.50 1020.77 1020.97 1021.10 1021.18 1021.23
1013.30 1012.94 1012.56 1012.17 1011.77 1011.37 1010.98 1010.60 1010.24 1009.93 1009.67 1009.47 1009.36 1009.34 1009.42 1009.62 1009.94 1010.38 1010.92 1011.55 1012.24 1012.97 1013.68 1014.37 1015.01 1015.58 1016.09 1016.55 1016.98 1017.39 1017.83 1018.28 1018.77 1019.27 1019.78 1020.27 1020.70 1021.07 1021.36 1021.57 1021.71 1021.79 1021.83
1013.35 1012.98 1012.62 1012.26 1011.89 1011.53 1011.17 1010.83 1010.51 1010.22 1009.98 1009.78 1009.65 1009.59 1009.62 1009.75 1009.99 1010.34 1010.80 1011.35 1011.97 1012.64 1013.32 1014.00 1014.65 1015.25 1015.81 1016.34 1016.85 1017.35 1017.88 1018.42 1018.99 1019.57 1020.14 1020.68 1021.17 1021.58 1021.90 1022.12 1022.27 1022.36 1022.41
1013.34 1012.98 1012.64 1012.29 1011.96 1011.63 1011.32 1011.03 1010.76 1010.52 1010.31 1010.14 1010.02 1009.95 1009.95 1010.03 1010.19 1010.46 1010.82 1011.27 1011.80 1012.38 1013.00 1013.63 1014.25 1014.86 1015.45 1016.02 1016.59 1017.17 1017.77 1018.40 1019.05 1019.71 1020.35 1020.95 1021.49 1021.94 1022.30 1022.56 1022.73 1022.83 1022.89
1013.39 1013.03 1012.68 1012.35 1012.04 1011.74 1011.47 1011.23 1011.01 1010.82 1010.66 1010.53 1010.43 1010.38 1010.37 1010.41 1010.53 1010.72 1011.00 1011.35 1011.78 1012.27 1012.80 1013.36 1013.93 1014.51 1015.09 1015.68 1016.29 1016.92 1017.58 1018.27 1018.98 1019.70 1020.40 1021.06 1021.64 1022.14 1022.54 1022.83 1023.04 1023.17 1023.25
1013.55 1013.19 1012.85 1012.52 1012.21 1011.93 1011.68 1011.47 1011.29 1011.14 1011.02 1010.94 1010.88 1010.85 1010.85 1010.89 1010.98 1011.12 1011.33 1011.61 1011.95 1012.35 1012.79 1013.27 1013.78 1014.31 1014.87 1015.44 1016.05 1016.70 1017.38 1018.10 1018.84 1019.59 1020.33 1021.02 1021.64 1022.18 1022.61 1022.95 1023.19 1023.35 1023.46
1013.87 1013.52 1013.17 1012.84 1012.53 1012.24 1011.99 1011.78 1011.62 1011.50 1011.41 1011.36 1011.34 1011.34 1011.37 1011.42 1011.50 1011.63 1011.80 1012.03 1012.31 1012.64 1013.01 1013.43 1013.87 1014.35 1014.86 1015.40 1015.98 1016.60 1017.27 1017.98 1018.71 1019.46 1020.20 1020.90 1021.54 1022.09 1022.56 1022.93 1023.20 1023.40 1023.55
Thickness
5759 5759 5759 5758 5759 5759 5759 5759 5759 5759 5759 5759 5760 5760 5759 5758 5758 5757 5758 5758 5757 5757 5756 5755 5755 5754 5754 5754 5753 5752 5752 5751 5751 5750 5750 5749 5748 5747 5747 5746 5745 5745 5744
5756 5756 5756 5755 5755 5756 5756 5757 5758 5758 5758 5759 5760 5761 5760 5759 5758 5757 5757 5757 5757 5756 5756 5755 5754 5754 5753 5753 5752 5751 5750 5750 5749 5749 5748 5747 5747 5746 5745 5744 5743 5743 5742
5752 5753 5753 5753 5752 5752 5752 5753 5755 5756 5756 5757 5759 5761 5761 5760 5758 5757 5757 5757 5756 5756 5755 5755 5754 5753 5752 5752 5751 5750 5749 5748 5748 5747 5746 5745 5745 5744 5743 5742 5741 5741 5740
5746 5748 5748 5749 5749 5749 5748 5748 5750 5751 5753 5754 5756 5759 5760 5759 5758 5757 5756 5756 5755 5755 5754 5754 5753 5752 5752 5751 5750 5749 5748 5747 5746 5745 5745 5743 5743 5742 5741 5740 5739 5739 5738
5740 5742 5744 5745 5746 5746 5745 5746 5746 5747 5748 5751 5753 5755 5757 5757 5756 5755 5754 5754 5754 5754 5753 5753 5752 5751 5750 5750 5749 5748 5747 5746 5745 5744 5743 5742 5741 5740 5739 5738 5737 5736 5735
5732 5735 5737 5740 5741 5741 5741 5741 5742 5744 5746 5748 5750 5750 5752 5754 5755 5754 5753 5753 5752 5752 5752 5751 5750 5750 5749 5748 5747 5746 5745 5744 5743 5742 5741 5740 5738 5737 5736 5735 5734 5733 5732
5724 5727 5730 5733 5735 5736 5737 5738 5737 5737 5739 5742 5740 5739 5743 5748 5750 5751 5751 5750 5750 5750 5750 5749 5748 5748 5747 5746 5745 5744 5743 5742 5741 5740 5739 5737 5736 5735 5733 5732 5731 5730 5729
5715 5719 5722 5725 5728 5729 5731 5732 5732 5731 5733 5736 5733 5728 5727 5732 5740 5747 5747 5747 5748 5748 5747 5747 5746 5746 5745 5744 5743 5742 5741 5740 5739 5738 5736 5735 5733 5732 5730 5729 5728 5727 5726
5706 5710 5714 5718 5721 5724 5726 5728 5729 5728 5726 5729 5732 5728 5721 5720 5727 5736 5741 5744 5745 5745 5745 5745 5744 5743 5742 5741 5741 5739 5738 5737 5736 5734 5733 5731 5730 5728 5726 5725 5724 5723 5722
5697 5702 5706 5710 5714 5718 5721 5724 5726 5726 5724 5723 5725 5729 5730 5729 5724 5724 5731 5737 5740 5741 5742 5742 5742 5740 5739 5738 5738 5736 5735 5733 5732 5731 5729 5728 5726 5724 5723 5721 5720 5719 5718
5688 5693 5698 5702 5706 5711 5715 5718 5721 5722 5722 5721 5721 5722 5723 5724 5727 5723 5721 5726 5730 5735 5737 5739 5739 5738 5736 5735 5734 5733 5731 5730 5729 5727 5726 5724 5722 5720 5718 5717 5716 5714 5713
5678 5684 5690 5695 5700 5704 5708 5712 5714 5716 5718 5718 5719 5719 5720 5719 5719 5720 5718 5719 5721 5726 5731 5733 5734 5734 5734 5732 5731 5730 5728 5727 5725 5723 5721 5720 5718 5716 5715 5713 5711 5710 5708
5669 5675 5681 5687 5692 5697 5702 5706 5708 5710 5713 5714 5715 5716 5718 5719 5720 5719 5716 5714 5715 5718 5722 5726 5729 5730 5730 5729 5728 5726 5725 5723 5721 5719 5717 5715 5713 5712 5710 5708 5706 5704 5703
5662 5668 5674 5680 5685 5690 5695 5700 5702 5705 5708 5709 5711 5713 5713 5715 5717 5717 5715 5711 5708 5709 5714 5718 5722 5725 5726 5725 5724 5722 5721 5719 5717 5715 5713 5711 5709 5706 5705 5702 5700 5698 5697
5657 5661 5667 5672 5677 5682 5687 5691 5695 5698 5702 5705 5706 5708 5709 5711 5712 5714 5714 5713 5708 5703 5704 5710 5714 5719 5721 5721 5720 5718 5716 5715 5712 5710 5708 5706 5703 5701 5699 5696 5694 5692 5690
5651 5654 5659 5663 5668 5674 5679 5683 5687 5692 5695 5698 5701 5702 5704 5705 5706 5708 5709 5709 5709 5705 5701 5705 5708 5712 5714 5715 5713 5712 5711 5709 5707 5705 5703 5700 5698 5695 5692 5690 5687 5685 5683
5645 5648 5651 5655 5660 5665 5670 5675 5679 5684 5687 5691 5694 5696 5698 5699 5700 5701 5702 5702 5702 5701 5697 5698 5702 5704 5706 5706 5705 5704 5703 5702 5700 5698 5696 5694 5691 5688 5685 5683 5680 5678 5676
5640 5642 5645 5648 5652 5657 5661 5666 5670 5675 5679 5683 5687 5688 5690 5693 5693 5695 5695 5695 5696 5697 5695 5692 5693 5695 5697 5698 5698 5696 5695 5694 5692 5690 5689 5687 5684 5681 5679 5676 5673 5671 5669
5635 5637 5639 5641 5645 5649 5653 5658 5662 5667 5671 5676 5679 5682 5685 5686 5686 5688 5688 5689 5690 5691 5691 5689 5687 5689 5689 5689 5689 5687 5686 5685 5683 5681 5679 5677 5675 5673 5670 5668 5666 5664 5662
5631 5632 5633 5635 5638 5642 5646 5650 5655 5659 5663 5668 5672 5676 5678 5680 5681 5682 5683 5683 5683 5683 5683 5683 5682 5682 5682 5682 5682 5679 5676 5674 5674 5672 5670 5667 5666 5664 5662 5660 5658 5657 5655
5627 5627 5628 5630 5633 5637 5641 5644 5648 5651 5655 5659 5664 5668 5671 5674 5676 5677 5678 5677 5677 5677 5676 5676 5675 5675 5674 5674 5673 5672 5669 5666 5663 5662 5660 5658 5656 5655 5653 5652 5651 5649 5648
5622 5623 5623 5624 5627 5631 5635 5639 5642 5644 5648 5651 5655 5659 5663 5666 5668 5670 5671 5672 5672 5672 5671 5671 5670 5670 5669 5670 5669 5667 5663 5660 5655 5652 5652 5648 5647 5646 5644 5643 5643 5642 5641
5618 5617 5618 5619 5621 5624 5629 5633 5636 5638 5641 5644 5647 5651 5655 5658 5660 5661 5663 5664 5665 5667 5669 5669 5667 5666 5666 5667 5665 5661 5658 5656 5652 5648 5646 5640 5638 5637 5636 5635 5635 5635 5634
5614 5613 5613 5614 5616 5620 5624 5627 5630 5632 5633 5636 5639 5643 5646 5649 5652 5654 5655 5655 5657 5660 5663 5665 5665 5665 5666 5664 5663 5660 5655 5650 5645 5642 5642 5635 5631 5629 5628 5628 5628 5628 5628
5612 5611 5610 5610 5611 5614 5619 5622 5624 5626 5627 5629 5632 5635 5638 5640 5644 5647 5648 5648 5650 5652 5656 5659 5661 5661 5661 5660 5658 5653 5648 5645 5639 5636 5636 5633 5627 5623 5622 5621 5622 5622 5622
5612 5610 5609 5608 5608 5609 5614 5618 5620 5620 5621 5623 5625 5627 5631 5634 5637 5640 5642 5643 5643 5645 5649 5651 5652 5652 5652 5652 5652 5651 5649 5644 5638 5633 5633 5630 5624 5622 5618 5616 5617 5617 5617